NULL Weather Reports


Display with metric or nautical units.
time (UTC)temp
F
wind
direction
speed
MPH
gust
MPH
rain 1hr
in
rain 24hr
in
rain mn
in
humidity
%
barometer
mb
20260510013026 71 343 2.0 8.0 0.00 0.01 0.01 47 1010.6
20260510013003 68 137 2.0 8.0 0.00 0.00 0.00 78 1010.8
20260510011600 69 149 3.0 9.0 0.00 0.00 0.00 77 1010.8
20260510011525 72 321 5.0 18.0 0.00 0.01 0.01 45 1010.5
20260510010059 69 159 0.0 8.0 0.00 0.00 0.00 77 1010.7
20260510010023 72 359 4.0 13.0 0.00 0.01 0.01 44 1010.4
20260510004603 70 138 2.0 9.0 0.00 0.00 0.00 75 1010.6
20260510004522 73 9 9.0 18.0 0.00 0.01 0.01 44 1009.9
20260510003103 70 152 4.0 9.0 0.00 0.00 0.00 74 1010.7
20260510003022 74 23 6.0 16.0 0.00 0.01 0.01 44 1009.8
20260510001557 71 161 0.0 7.0 0.00 0.00 0.00 73 1010.6
20260510001521 74 347 7.0 15.0 0.00 0.01 0.01 45 1009.6
20260510000057 72 121 2.0 8.0 0.00 0.00 0.00 72 1010.7
20260510000025 74 24 4.0 12.0 0.00 0.01 0.01 45 1009.4
20260509234556 72 158 4.0 9.0 0.00 0.00 0.00 70 1010.7
20260509234534 74 339 9.0 16.0 0.00 0.01 0.01 43 1009.3
20260509233100 73 162 0.0 7.0 0.00 0.00 0.00 69 1010.7
20260509233034 75 348 11.0 15.0 0.00 0.01 0.01 43 1009.2
20260509231559 73 158 0.0 5.0 0.00 0.00 0.00 70 1010.7
20260509231519 76 47 6.0 16.0 0.00 0.01 0.01 41 1009.1
20260509230053 73 174 1.0 7.0 0.00 0.00 0.00 70 1010.8
20260509230019 76 328 4.0 14.0 0.00 0.01 0.01 41 1009.1
20260509224618 76 322 4.0 18.0 0.00 0.01 0.01 40 1009.0
20260509224551 73 152 0.0 9.0 0.00 0.00 0.00 70 1010.8
20260509223050 74 216 0.0 7.0 0.00 0.00 0.00 69 1011.2
20260509223018 77 11 6.0 16.0 0.00 0.01 0.01 39 1008.9
20260509221547 74 152 0.0 11.0 0.00 0.00 0.00 68 1011.4
20260509221517 80 354 10.0 19.0 0.00 0.01 0.01 34 1008.6
20260509220052 74 173 0.0 4.0 0.00 0.00 0.00 68 1011.5
20260509220025 82 273 7.0 15.0 0.00 0.01 0.01 29 1007.9
20260509214545 75 171 0.0 1.0 0.00 0.00 0.00 66 1011.5
20260509214516 84 224 9.0 22.0 0.00 0.02 0.01 28 1007.7
20260509213043 76 133 0.0 4.0 0.00 0.00 0.00 65 1011.7
20260509213016 84 260 5.0 20.0 0.00 0.02 0.01 26 1007.7
20260509211545 75 182 0.0 7.0 0.00 0.00 0.00 66 1011.6
20260509211515 85 317 8.0 17.0 0.00 0.02 0.01 27 1007.6
20260509210040 75 146 0.0 7.0 0.00 0.00 0.00 67 1011.8
20260509210014 84 258 9.0 22.0 0.00 0.02 0.01 27 1007.7
20260509204535 75 144 0.0 7.0 0.00 0.00 0.00 67 1012.0
20260509204512 85 233 5.0 14.0 0.00 0.06 0.01 28 1007.7
20260509203032 75 139 0.0 5.0 0.00 0.00 0.00 68 1012.2
20260509203009 85 204 11.0 23.0 0.00 0.06 0.01 27 1007.7
20260509201528 74 153 0.0 2.0 0.00 0.00 0.00 69 1012.2
20260509201506 84 237 8.0 19.0 0.00 0.06 0.01 31 1008.0
20260509200026 74 153 0.0 7.0 0.00 0.00 0.00 70 1012.3
20260509200002 83 247 7.0 19.0 0.00 0.06 0.01 31 1008.2
20260509194559 83 232 9.0 14.0 0.00 0.06 0.01 32 1008.4
20260509194528 74 124 0.0 5.0 0.00 0.00 0.00 69 1012.4
20260509193100 83 280 3.0 17.0 0.00 0.06 0.01 36 1008.4
20260509193021 74 164 0.0 6.0 0.00 0.00 0.00 70 1012.6
20260509191556 82 249 10.0 21.0 0.00 0.06 0.01 34 1008.7
20260509191520 73 123 0.0 6.0 0.00 0.00 0.00 70 1012.7
20260509190107 82 222 6.0 19.0 0.00 0.06 0.01 37 1009.0
20260509190019 73 126 0.0 5.0 0.00 0.00 0.00 72 1012.8
20260509184556 80 205 6.0 17.0 0.00 0.06 0.01 39 1009.2
20260509184525 73 155 0.0 2.0 0.00 0.00 0.00 71 1012.9
20260509183049 81 233 6.0 13.0 0.00 0.06 0.01 39 1009.3
20260509183016 72 142 0.0 0.0 0.00 0.00 0.00 72 1012.9
20260509181647 80 258 6.0 16.0 0.00 0.06 0.01 39 1009.6
20260509181511 71 141 0.0 1.0 0.00 0.00 0.00 74 1013.0
20260509180034 79 190 4.0 11.0 0.00 0.06 0.01 42 1009.7
20260509180007 70 9 0.0 6.0 0.00 0.00 0.00 76 1013.1
20260509174532 78 205 7.0 14.0 0.00 0.06 0.01 41 1010.0
20260509174504 69 167 0.0 2.0 0.00 0.00 0.00 77 1013.0
20260509173102 67 162 0.0 1.0 0.00 0.00 0.00 80 1013.1
20260509173032 78 195 5.0 10.0 0.00 0.06 0.01 43 1010.1
20260509171557 66 124 0.0 6.0 0.00 0.00 0.00 81 1013.2
20260509171535 76 154 3.0 10.0 0.00 0.06 0.01 45 1010.2
20260509170100 66 142 0.0 4.0 0.00 0.00 0.00 83 1013.0
20260509170025 75 249 3.0 15.0 0.00 0.06 0.01 47 1010.3
20260509164553 65 134 0.0 6.0 0.00 0.00 0.00 84 1013.0
20260509164523 74 274 4.0 10.0 0.00 0.06 0.01 49 1010.3
20260509163106 64 143 0.0 0.0 0.00 0.00 0.00 85 1013.0
20260509163043 74 258 2.0 8.0 0.00 0.06 0.01 51 1010.3
20260509161548 64 150 0.0 0.0 0.00 0.00 0.00 85 1013.2
20260509161523 72 224 5.0 10.0 0.00 0.06 0.01 51 1010.2
20260509160049 64 147 0.0 1.0 0.00 0.00 0.00 86 1013.2
20260509160013 71 221 3.0 8.0 0.00 0.06 0.01 55 1010.2
20260509154548 63 153 0.0 0.0 0.00 0.00 0.00 86 1013.3
20260509154510 70 120 3.0 8.0 0.00 0.06 0.01 58 1010.3
20260509153045 63 159 0.0 0.0 0.00 0.00 0.00 87 1013.2
20260509153016 69 195 5.0 9.0 0.00 0.06 0.01 58 1010.4
20260509151545 63 136 0.0 0.0 0.00 0.00 0.00 87 1013.2
20260509151503 67 85 1.0 9.0 0.00 0.06 0.01 60 1010.3
20260509150042 63 136 0.0 0.0 0.00 0.00 0.00 87 1013.2
20260509150001 67 180 5.0 11.0 0.00 0.06 0.01 60 1010.4
20260509144604 66 222 6.0 10.0 0.00 0.06 0.01 60 1010.3
20260509144543 63 155 0.0 0.0 0.00 0.00 0.00 88 1013.2
20260509143106 66 243 2.0 6.0 0.00 0.06 0.01 61 1010.3
20260509143048 62 157 0.0 0.0 0.00 0.00 0.00 88 1013.2
20260509141555 65 235 1.0 7.0 0.00 0.06 0.01 63 1010.3
20260509141543 62 154 0.0 0.0 0.00 0.00 0.00 89 1013.0
20260509140057 63 270 1.0 8.0 0.00 0.06 0.01 66 1010.4
20260509140047 62 154 0.0 0.0 0.00 0.00 0.00 89 1013.2
20260509134546 62 227 2.0 8.0 0.00 0.06 0.01 69 1010.3
20260509134537 62 154 0.0 0.0 0.00 0.00 0.00 89 1013.0
20260509133047 60 256 3.0 7.0 0.00 0.06 0.01 72 1010.2
20260509133036 62 158 0.0 0.0 0.00 0.00 0.00 89 1012.8
20260509131539 62 158 0.0 0.0 0.00 0.00 0.00 89 1012.6
20260509131537 58 222 5.0 10.0 0.00 0.06 0.01 77 1010.2
20260509130042 61 158 0.0 0.0 0.00 0.00 0.00 89 1012.5
20260509130033 56 218 5.0 9.0 0.00 0.06 0.01 85 1010.1
20260509124538 55 199 2.0 7.0 0.00 0.06 0.01 85 1010.3
20260509123045 61 159 0.0 0.0 0.00 0.00 0.00 90 1012.5
20260509123027 53 208 2.0 4.0 0.00 0.06 0.01 85 1009.8
20260509121538 52 178 2.0 7.0 0.00 0.06 0.01 85 1009.9
20260509121532 61 159 0.0 0.0 0.00 0.00 0.00 90 1012.5
20260509120031 61 159 0.0 0.0 0.00 0.00 0.00 90 1012.6
20260509120026 51 192 2.0 3.0 0.00 0.06 0.01 85 1009.7
20260509114546 51 221 2.0 5.0 0.00 0.06 0.01 85 1009.4
20260509114533 61 159 0.0 0.0 0.00 0.00 0.00 90 1012.5
20260509113036 61 158 0.0 0.0 0.00 0.00 0.00 90 1012.4
20260509113024 51 219 2.0 3.0 0.00 0.06 0.01 85 1009.3
20260509111542 61 158 0.0 0.0 0.00 0.00 0.00 90 1012.5
20260509111524 51 72 1.0 3.0 0.00 0.06 0.01 85 1009.3
20260509110029 61 159 0.0 0.0 0.00 0.00 0.00 90 1012.5
20260509110022 50 219 0.0 2.0 0.00 0.06 0.01 85 1009.0
20260509104529 61 156 0.0 0.0 0.00 0.00 0.00 90 1012.5
20260509104522 51 220 0.0 2.0 0.00 0.06 0.01 85 1009.2
20260509103026 61 156 0.0 0.0 0.00 0.00 0.00 90 1012.6
20260509103018 52 147 0.0 0.0 0.00 0.06 0.01 85 1009.3
20260509101530 61 156 0.0 0.0 0.00 0.00 0.00 90 1012.7
20260509101518 52 147 0.0 0.0 0.00 0.06 0.01 85 1009.2
20260509100024 61 156 0.0 0.0 0.00 0.00 0.00 90 1012.6
20260509100017 53 147 0.0 0.0 0.00 0.06 0.01 85 1009.2
20260509094525 61 156 0.0 0.0 0.00 0.00 0.00 91 1012.8
20260509094522 53 157 0.0 4.0 0.00 0.06 0.01 85 1009.3
20260509093022 61 159 0.0 0.0 0.00 0.00 0.00 91 1012.9
20260509093016 53 105 2.0 5.0 0.00 0.06 0.01 85 1009.1
20260509091519 61 158 0.0 0.0 0.00 0.00 0.00 91 1013.0
20260509091516 53 174 4.0 8.0 0.00 0.06 0.01 85 1009.2
20260509090040 53 183 2.0 4.0 0.00 0.06 0.01 85 1009.0
20260509090018 61 158 0.0 0.0 0.00 0.00 0.00 91 1013.1
20260509084520 54 207 2.0 6.0 0.00 0.06 0.01 85 1009.0
20260509084517 61 153 0.0 0.0 0.00 0.00 0.00 91 1013.3
20260509083035 54 210 2.0 8.0 0.00 0.06 0.01 85 1008.9
20260509083019 61 152 0.0 2.0 0.00 0.00 0.00 90 1013.2
20260509081523 54 195 4.0 10.0 0.00 0.06 0.01 85 1008.9
20260509081514 61 153 0.0 3.0 0.00 0.00 0.00 90 1013.4
20260509080013 54 173 4.0 7.0 0.00 0.06 0.01 85 1009.0
20260509080011 61 158 0.0 0.0 0.00 0.00 0.00 90 1013.7
20260509074523 53 195 2.0 6.0 0.01 0.06 0.01 85 1009.0
20260509074511 61 140 0.0 0.0 0.00 0.00 0.00 90 1013.6
20260509073010 61 135 0.0 0.0 0.00 0.00 0.00 90 1013.7
20260509073008 53 195 0.0 3.0 0.01 0.06 0.01 85 1009.2
20260509071509 61 138 0.0 0.0 0.00 0.00 0.00 90 1013.6
20260509071507 53 177 0.0 1.0 0.01 0.06 0.01 85 1009.0
20260509070007 62 125 0.0 0.0 0.00 0.00 0.00 90 1013.7
20260509070005 53 177 0.0 1.0 0.01 0.06 0.01 85 1009.2
20260509064518 62 141 0.0 0.0 0.00 0.00 0.00 90 1013.9
20260509064503 53 176 1.0 3.0 0.00 0.05 0.00 85 1009.3
20260509063122 53 177 0.0 2.0 0.00 0.05 0.00 85 1009.5
20260509063006 62 117 0.0 0.0 0.00 0.00 0.00 90 1014.0
20260509061602 53 176 0.0 3.0 0.00 0.05 0.00 85 1009.6
20260509061514 61 145 0.0 2.0 0.00 0.00 0.00 90 1014.0
20260509060059 52 176 0.0 1.0 0.00 0.05 0.00 85 1009.7
20260509060007 61 124 0.0 6.0 0.00 0.00 0.00 92 1014.0
20260509054559 52 177 1.0 4.0 0.00 0.05 0.00 85 1009.7
20260509054504 61 113 0.0 2.0 0.00 0.00 0.00 90 1014.0
20260509053056 52 187 0.0 3.0 0.00 0.05 0.00 85 1009.9
20260509053011 61 135 0.0 5.0 0.00 0.00 0.00 90 1014.0
20260509051555 52 186 1.0 3.0 0.00 0.05 0.00 85 1009.7
20260509051504 61 125 0.0 4.0 0.00 0.00 0.00 90 1014.1
20260509050059 52 187 2.0 3.0 0.00 0.05 0.00 85 1009.7
20260509050005 61 155 0.0 0.0 0.00 0.00 0.00 90 1014.0
20260509044548 52 191 0.0 0.0 0.00 0.05 0.05 85 1009.8
20260509044503 62 123 1.0 5.0 0.00 0.00 0.00 89 1014.0
20260509043048 53 194 0.0 0.0 0.00 0.05 0.05 85 1009.7
20260509043002 62 163 0.0 2.0 0.00 0.00 0.00 89 1013.8
20260509041549 54 194 0.0 2.0 0.00 0.05 0.05 85 1009.7
20260509041502 62 148 0.0 3.0 0.00 0.00 0.00 88 1013.6
20260509040044 54 195 1.0 3.0 0.00 0.05 0.05 85 1009.8
20260509040001 62 120 0.0 4.0 0.00 0.00 0.00 88 1013.5
20260509034544 54 207 1.0 4.0 0.00 0.05 0.05 85 1009.9
20260509034501 63 152 0.0 4.0 0.00 0.00 0.00 87 1013.4
20260509033100 63 144 0.0 3.0 0.00 0.00 0.00 86 1013.4
20260509033059 54 168 2.0 5.0 0.00 0.05 0.05 85 1009.8
20260509031603 64 130 0.0 5.0 0.00 0.00 0.00 85 1013.4
20260509031544 54 176 2.0 4.0 0.00 0.05 0.05 85 1009.8
20260509030059 64 155 0.0 0.0 0.00 0.00 0.00 84 1013.2
20260509030044 55 176 0.0 5.0 0.00 0.05 0.05 85 1009.7
20260509024559 65 143 0.0 2.0 0.00 0.00 0.00 84 1012.9
20260509024545 55 187 1.0 2.0 0.00 0.05 0.05 85 1009.4
20260509023058 65 143 0.0 4.0 0.00 0.00 0.00 82 1012.7
20260509023042 56 213 1.0 4.0 0.00 0.05 0.05 85 1009.3
20260509021558 66 117 1.0 7.0 0.00 0.00 0.00 81 1012.5
20260509021542 57 187 1.0 2.0 0.00 0.05 0.05 85 1009.1
20260509020057 66 138 0.0 5.0 0.00 0.00 0.00 80 1012.6
20260509020041 58 206 3.0 4.0 0.00 0.05 0.05 85 1009.0
20260509014557 67 148 0.0 7.0 0.00 0.00 0.00 80 1012.6
20260509014541 59 295 0.0 1.0 0.00 0.05 0.05 85 1008.9